THOR ABLESTAR DEB, 48820

Orbit data source: Space-Track

THOR ABLESTAR DEB, 48820 is space debris in LEO originally from a launch on Thu, 29 Jun 1961 UTC launched from the Air Force Eastern Test Range (AFETR). Debris objects in space refer to the collection of defunct objects orbiting the Earth. Examples of debris include non-operational satellites, rocket bodies, and fragments generated from explosions, collisions, or faulty payload assembly.

Loading next visibility...
Identifier
48820, 1961-015MY
Orbit
LEO
Country
Flag of USUS
Related business
Manufacturer
Unknown
Mission
Spacecraft
Bus & Motor
Unknown
Mass
Unknown
Launch date (UTC)
1961-06-29 (65 years ago)
Launch vehicle
Unknown
Launch site
Air Force Eastern Test Range (AFETR)
Object type
Payload
Rocket body
Debris
Shape & HBR
Unknown shape, 0.1 m
Radar Cross Section
Small (<0.1 m²)

Expand to show TLE details & history
Last TLE update: 1 day ago

TLE from 1 day ago
0 THOR ABLESTAR DEB
1 48820U 61015MY  26106.36157046  .00000313  00000-0  42295-3 0  9994
2 48820  65.8476  93.4755 0134865 195.5961 164.0926 13.69413042620094
Epoch: 2026-04-16T08:40Z
TLE epoch observation values (Epoch: 2026-04-16T08:40:39.687Z)
Latitude
-0.00003°
Longitude
118.79991°
Altitude
1,099.486 km
Speed
7.255 km/s
True Right ascension
06h 13m 54s
True Declination
0° 00' 00"
Sunlit
Object was in daylight at epoch
Visualization orbit readout
Latitude
Unknown
Longitude
Unknown
Altitude
Unknown
Speed
Unknown
Apparent Right ascension
Unknown
Apparent Declination
Unknown
Sunlit
N/A
Visualization observer readout
Local Sidereal Time
01:47:11
Azimuth
Unknown
Elevation
Unknown
Doppler factor
Unknown
Orbital elements
Apogee altitude
1,099.706 km
Perigee altitude
900.69 km
Semi-major axis
7,378.335 km
Eccentricity
0.01349
Inclination
65.8476°
RAAN
93.4755°
Arg. of periapsis
195.5961°
True anomaly
164.50941°
Mean anomaly
164.0926°
Eccentric anomaly
164.30168°
Mean motion
3.42457 °/min
Orbital period
105.12 mins
BSTAR
0.00042295
Loading maneuver chart data...
Computing Atmospheric mass density...
Loading historical data...
Loading historical data...
Loading historical data...
Loading historical data...
Loading historical data...
Loading historical data...
Loading historical data...

Documentation

Showing up to 5 results
|